This demonstration page uses our WeatherBlox Daily Observations layout. Learn more.

Left ArrowRight Arrow

Hourly Observations for November 24, 2015

Temp ( °F °C ) Dew Point ( °F °C ) Humidity (%) Winds ( mph kmh ) Pressure ( in mb ) Visibility ( mi km ) Precip ( " mm )
12:53 am 00:53 Clear 32 0 27 -2.8 82 82 Calm 30.34 1027 10 16 0.00 0.00
1:53 am 01:53 Clear 31 -0.6 28 -2.2 89 89 Calm 30.34 1027 10 16 0.00 0.00
2:53 am 02:53 Clear 31 -0.6 27 -2.8 85 85 Calm 30.35 1028 10 16 0.00 0.00
3:53 am 03:53 Clear 30 -1.1 27 -2.8 88 88 Calm 30.36 1028 10 16 0.00 0.00
4:53 am 04:53 Clear 30 -1.1 27 -2.8 88 88 Calm 30.37 1028 10 16 0.00 0.00
5:53 am 05:53 Clear 30 -1.1 27 -2.8 88 88 Calm 30.37 1029 10 16 0.00 0.00
6:53 am 06:53 Clear 30 -1.1 27 -2.8 88 88 Calm 30.40 1030 10 16 0.00 0.00
7:53 am 07:53 Sunny 30 -1.1 27 -2.8 88 88 Calm 30.41 1030 10 16 0.00 0.00
8:53 am 08:53 Sunny 37 2.8 31 -0.6 79 79 NE 3 6 30.42 1030 10 16 0.00 0.00
9:53 am 09:53 Sunny 44 6.7 31 -0.6 60 60 E 3 6 30.42 1030 10 16 0.00 0.00
10:53 am 10:53 Sunny 51 10.6 30 -1.1 44 44 ENE 8 13 30.42 1030 10 16 0.00 0.00
11:53 am 11:53 Sunny 55 12.8 27 -2.8 34 34 NE 6 9 30.41 1030 10 16 0.00 0.00
12:53 pm 12:53 Sunny 57 13.9 27 -2.8 32 32 N 6 9 30.38 1029 10 16 0.00 0.00
1:53 pm 13:53 Sunny 59 15 26 -3.3 28 28 E 7 11 30.36 1028 10 16 0.00 0.00
2:53 pm 14:53 Sunny 59 15 25 -3.9 27 27 ENE 7 11 30.34 1028 10 16 0.00 0.00
3:53 pm 15:53 Sunny 58 14.4 27 -2.8 31 31 ESE 6 9 30.35 1028 10 16 0.00 0.00
4:53 pm 16:53 Sunny 57 13.9 27 -2.8 32 32 ESE 5 7 30.35 1028 10 16 0.00 0.00
5:53 pm 17:53 Clear 54 12.2 28 -2.2 37 37 ESE 3 6 30.36 1028 10 16 0.00 0.00
6:53 pm 18:53 Clear 46 7.8 32 0 58 58 Calm 30.38 1029 10 16 0.00 0.00
7:53 pm 19:53 Clear 42 5.6 33 0.6 71 71 Calm 30.40 1030 10 16 0.00 0.00
8:53 pm 20:53 Clear 40 4.4 35 1.7 83 83 Calm 30.41 1030 10 16 0.00 0.00
9:53 pm 21:53 Clear 40 4.4 33 0.6 77 77 Calm 30.42 1030 10 16 0.00 0.00
10:53 pm 22:53 Clear 37 2.8 32 0 82 82 Calm 30.42 1030 10 16 0.00 0.00
11:53 pm 23:53 Clear 37 2.8 33 0.6 86 86 Calm 30.42 1030 10 16 0.00 0.00

Powered by AerisWeather